Погода Сумы

Погода Сумы : погода сейчас, прогноз погоды и архив. Всё, что Вы хотите узнать о погоде Сумы!

Хотите узнать прогноз погоды Сумы? Тогда Вам сюда: Погода Сумы

Поиск расширенной информации на нашем сайте:

Полезная информация:

Другие новости

Новости СМИ2

Главная страница сайта

Новости сайта

03.07.2017

Напоминаем, что на нашем специализированном сайте Метеоцентр.Азия вы можете получить высокодетализированные автоматические прогнозы погоды по пунктам России, СНГ и мира в авиационном формате (включающие направление и скорость ветра, видимость, явления погоды, количество и форму облачности, нижнюю и верхнюю границу облачности).

Рекомендуем:

Погода Сумы - сегодня

Время (UTC), дата Ветер
(°,м/с) 
Видим.   Явления Облачность Т
(°С)
Тd
(°С)
f(%) Тe
(°С)
Pmin
(гПа)
dP
(гПа)
Po
(мм)
O2
(г/м3)
Тmin Tmax R s Состояние
почвы
12 15.07.19 170 (Ю) 10 км    8/8 600 м 
[Cu med, cong]
+25.5 +10.3 38 +27  1007.3  -0.5  740  271           
15 15.07.19 320 (СЗ) 10 км    6/3 600 м средняя 
[Cu hum|Ac trans]
+25.6 +10.7 39 +28  1006.7  -0.5  740  271           
18 15.07.19 010 (С) 10 км    8/4 600 м кучево-дожд., средняя 
[Cb calv|Ac trans]
+19.1 +12.9 67 +26  1008.3  1.1  740  276    +26.6       
21 15.07.19 330 (СЗ) 10 км    8/0 верхняя 
[Ci fib]
+16.4 +11.2 71 +20  1008.5  740  279           
00 16.07.19 360 (С) 10 км    6/0 средняя, верхняя 
[Ac trans|Ci fib]
+14.9 +13.3 90 +21  1008  -0.6  740  280           
03 16.07.19 310 (СЗ) 10 км    8/0 средняя, верхняя 
[Ac trans|Ci fib]
+13.7 +13 96 +20  1008.1  740  281           
06 16.07.19 340 (С) 10 км    6/3 600 м кучево-дожд., средняя 
[Cb calv|Ac trans]
+16.1 +13.8 86 +24  1008.1  0.2  740  279  +13.2         
09 16.07.19 340 (С) 10 км    6/0 верхняя 
[Ci fib]
+22.7 +14.2 59 +30  1006.9  -0.7  740  272           
12 16.07.19 310 (СЗ) 10 км    6/4 600 м верхняя 
[Cu hum|Ci fib]
+25.8 +14.1 48 +33  1005.4  -1.3  739  269           
15 16.07.19 280 (З) 10 км  гроза, ливневой дождь  8/5 600 м кучево-дожд., средняя 
[Cb cap|Ac trans]
+18 +10.2 60 +20  1006.6  0.6  739  278           
18 16.07.19 010 (С) 10 км  слаб. ливневой дождь{гроза}  10/5 600 м кучево-дожд., средняя 
[Cb calv|Ac und]
+15.3 +13.9 91 +23  1007.6  0.8  740  279    +26.2  15     
21 16.07.19 350 (С) 10 км  {ливн. осадки}  8/0 средняя 
[Ac trans]
+14.7 +13.1 90 +22  1007.5  -0.1  740  280           
00 17.07.19 тихо ()   10 км  {ливн. осадки}  9/0 средняя 
[Ac trans]
+14.4 +12.9 91 +20  1007.4  -0.1  740  280      0.0     
03 17.07.19 тихо ()   10 км    9/0 средняя 
[Ac trans]
+14.7 +13.6 93 +21  1006.8  -0.6  739  280           
06 17.07.19 230 (ЮЗ) 10 км    6/3 600 м средняя 
[Sc|Ac trans]
+17 +15.3 90 +28  1006.3  -0.3  739  277  +14    0.0     
09 17.07.19 280 (З) 10 км    6/5 600 м верхняя 
[Cu med, cong|Ci fib]
+22.7 +12.8 54 +28  1005.6  -0.3  739  272           
12 17.07.19 260 (З) 10 км  слаб. ливневой дождь  8/6 1200 м кучево-дожд., средняя 
[Cb calv|Ac trans]
+21.2 +11.3 53 +24  1005.7  739  274      0.0     
15 17.07.19 290 (З) 10 км  {ливн. осадки}  6/3 600 м средняя 
[Cu hum|Ac trans]
+21.8 +14.3 62 +30  1005.4  -0.3  738  273           
18 17.07.19 210 (ЮЗ) 10 км  {ливн. осадки}  3/0 средняя 
[Ac trans]
+18.4 +13.5 73 +27  1006.2  0.6  739  276    +23.6  0.0     
21 17.07.19 210 (ЮЗ) 10 км    3/0 средняя 
[Ac trans]
+13.7 +11.8 88 +18  1006.7  0.1  739  281           
00 18.07.19 250 (З) 10 км    8/0 средняя 
[Ac trans]
+14.4 +12.4 88 +20  1006.5  -0.1  739  280           
03 18.07.19 200 (Ю) 10 км  {ливн. осадки}  4/3 600 м кучево-дожд., средняя 
[Cb calv|Ac trans]
+12.4 +11.6 95 +17  1007.1  0.4  739  283           
06 18.07.19 240 (ЮЗ) 10 км  {ливн. осадки}  3/3 300 м 
[Cu hum]
+16.8 +14 84 +24  1007.4  0.6  740  278  +12.1    0.7     
09 18.07.19 240 (ЮЗ) 10 км    6/6 600 м 
[Cu med, cong]
+19.9 +9.9 52 +22  1007.7  0.5  740  276           
12 18.07.19 250 (З) 10 км    8/5 600 м средняя 
[Cu med, cong|Ac trans]
+21.7 +10.4 49 +24  1008.2  0.6  740  274           
Время (UTC), дата Ветер
(°,м/с) 
Видим.   Явления Облачность Т
(°С)
Тd
(°С)
f(%) Тe
(°С)
Pmin
(гПа)
dP
(гПа)
Po
(мм)
O2
(г/м3)
Тmin Tmax R s Состояние
почвы

Для получения пояснительной информации подведите курсор к названию столбца.

ПОГОДА Сумы - архив

Всё, что Вы хотите узнать о погоде Сумы - удобно и подробно!

Выберите нужную дату (начиная с 1 января 2018* года) и нажмите кнопку "Найти".
Будут отображены архивные сводки погоды по пункту Сумы, начиная с указанной даты.


Отображать данные в формате CSV (для использования в таблицах Excel)


Внимание! Наш архив погоды предназначен исключительно для личного некоммерческого использования в познавательных целях. Если Вам необходимы официальные справки о состоянии погоды (для производственных, юридических, коммерческих и т.п. целей), обращайтесь в органы Росгидромета.

*Примечание: данная дата относится к архиву по метеостанциям СССР (Россия, СНГ, Балтия).
Архив по метеостанциям Зарубежной Европы и Азии (кроме Китая) хранится 10 дней, по другим регионам земного шара (Китай, Африка, Америка, Австралия, Океания) - 1 день.

Сумы - район местоположения метеостанции


Название, широта, долгота, высота метеостанции:
Сумы 50.9°ш. 34.7°д. 181 м над ур. моря [Украина]

Дополнительная информация

В oтличие oт бoльшинства пoгoдных сайтoв мы публикуем пoдрoбную метеoинфoрмацию в детальнoм прoфессиoнальнoм фoрмате.

Характеристики температуры и влажнoсти вoздуха измеряются на высoте 2 м в тени вдали oт зданий и деревьев.
Скoрoсть ветра измеряется на высoте 10 м (на урoвне рoста челoвека скoрoсть ветра ниже в 1.5-2 раза). Если метеoстанция нахoдится в гoрoде или в лесу, тo скoрoсть ветра занижена на 2-4 м/с пo сравнению с oткрытым местoм. Скoрoсть ветра над акватoриями крупных рек и oзёр, а также на вершинах хoлмoв на 2-5 м/с выше, чем в oбычных услoвиях.
Атмoсфернoе давление в разных тoчках местнoсти мoжет значительнo oтличаться oт давления на метеoстанции, в зависимoсти oт услoвий рельефа (при пoдъёме на 10 м давление пoнижается примернo на 1 мм рт.ст.).